TimeEST,TemperatureF,Dew PointF,Humidity,Sea Level PressureIn,VisibilityMPH,Wind Direction,Wind SpeedMPH,Gust SpeedMPH,PrecipitationIn,Events,Conditions,WindDirDegrees,DateUTC
12:06 AM,46.9,45.0,93,30.25,-9999.0,NW,6.9,-,N/A,,Overcast,320,2013-12-09 05:06:00
12:35 AM,46.9,45.0,93,30.23,-9999.0,NW,8.1,-,N/A,,Overcast,320,2013-12-09 05:35:00
12:56 AM,46.0,45.0,96,30.25,-9999.0,NW,6.9,-,N/A,,Overcast,310,2013-12-09 05:56:00
1:56 AM,46.9,45.0,93,30.25,-9999.0,WNW,6.9,-,N/A,Rain,Light Rain,300,2013-12-09 06:56:00
2:56 AM,46.0,44.1,93,30.24,-9999.0,WNW,5.8,-,N/A,,Overcast,290,2013-12-09 07:56:00
3:56 AM,46.0,45.0,96,30.22,-9999.0,WNW,3.5,-,N/A,,Overcast,300,2013-12-09 08:56:00
4:16 AM,46.0,45.0,96,30.21,-9999.0,West,4.6,-,N/A,,Overcast,260,2013-12-09 09:16:00
4:49 AM,46.9,45.0,93,30.21,-9999.0,WNW,5.8,-,N/A,,Overcast,290,2013-12-09 09:49:00
4:56 AM,46.9,45.0,93,30.23,-9999.0,Calm,Calm,-,N/A,,Overcast,0,2013-12-09 09:56:00
5:35 AM,46.9,46.0,97,30.20,-9999.0,Calm,Calm,-,N/A,,Overcast,0,2013-12-09 10:35:00
5:56 AM,46.9,46.0,97,30.21,-9999.0,SSW,3.5,-,N/A,,Overcast,210,2013-12-09 10:56:00
6:56 AM,46.9,45.0,93,30.22,-9999.0,NW,5.8,-,N/A,,Overcast,320,2013-12-09 11:56:00
7:56 AM,46.9,46.0,97,30.21,-9999.0,Calm,Calm,-,N/A,,Overcast,0,2013-12-09 12:56:00
8:56 AM,48.9,48.0,97,30.22,-9999.0,North,-9999.0,-,N/A,,Overcast,0,2013-12-09 13:56:00
9:56 AM,53.1,52.0,96,30.21,-9999.0,South,3.5,-,N/A,,Overcast,170,2013-12-09 14:56:00
10:40 AM,57.0,55.9,96,30.17,-9999.0,South,5.8,-,N/A,,Scattered Clouds,190,2013-12-09 15:40:00
10:56 AM,60.1,57.9,93,30.18,-9999.0,South,4.6,-,N/A,,Clear,180,2013-12-09 15:56:00
11:56 AM,60.1,55.9,86,30.16,-9999.0,NW,5.8,-,N/A,,Mostly Cloudy,320,2013-12-09 16:56:00
12:08 PM,59.0,54.0,83,30.14,-9999.0,NNW,3.5,-,N/A,,Overcast,340,2013-12-09 17:08:00
12:56 PM,60.1,55.0,83,30.14,-9999.0,NNW,3.5,-,N/A,,Overcast,330,2013-12-09 17:56:00
1:42 PM,63.0,57.0,81,30.11,-9999.0,Calm,Calm,-,N/A,,Mostly Cloudy,0,2013-12-09 18:42:00
1:56 PM,68.0,61.0,78,30.12,-9999.0,Variable,4.6,-,N/A,,Mostly Cloudy,0,2013-12-09 18:56:00
2:56 PM,73.0,66.0,79,30.10,-9999.0,SSW,13.8,21.9,N/A,,Scattered Clouds,210,2013-12-09 19:56:00
3:56 PM,72.0,66.0,81,30.10,-9999.0,SW,12.7,-,N/A,,Clear,220,2013-12-09 20:56:00
4:56 PM,70.0,66.0,87,30.09,-9999.0,SSW,10.4,-,N/A,,Clear,210,2013-12-09 21:56:00
5:56 PM,66.0,64.0,93,30.11,-9999.0,SW,5.8,-,N/A,,Clear,220,2013-12-09 22:56:00
6:56 PM,64.9,64.0,97,30.12,-9999.0,South,6.9,-,N/A,,Clear,180,2013-12-09 23:56:00
7:56 PM,63.0,62.1,97,30.13,-9999.0,SW,5.8,-,N/A,,Clear,220,2013-12-10 00:56:00
8:17 PM,62.1,62.1,100,30.11,-9999.0,SSW,4.6,-,N/A,,Mostly Cloudy,200,2013-12-10 01:17:00
8:56 PM,59.0,59.0,100,30.12,-9999.0,NW,5.8,-,N/A,,Overcast,320,2013-12-10 01:56:00
9:07 PM,60.1,59.0,96,30.11,-9999.0,Calm,Calm,-,N/A,,Overcast,0,2013-12-10 02:07:00
9:56 PM,57.9,57.9,100,30.12,-9999.0,Calm,Calm,-,N/A,,Overcast,0,2013-12-10 02:56:00
10:56 PM,57.0,57.0,100,30.11,-9999.0,Calm,Calm,-,N/A,,Overcast,0,2013-12-10 03:56:00
11:20 PM,57.9,57.0,97,30.09,-9999.0,Calm,Calm,-,N/A,,Overcast,0,2013-12-10 04:20:00
11:56 PM,59.0,57.9,96,30.10,-9999.0,Calm,Calm,-,N/A,,Overcast,0,2013-12-10 04:56:00